{"data":{"norad_id":66074,"epoch":"2026-09-20T21:57:56.631456Z","epoch_age_seconds":67123,"freshness":"FRESH","line1":"1 66074U 25235S   26263.91523879  .00015402  00000+0  46579-3 0  9998","line2":"2 66074  53.1590  57.6008 0000829  89.8760 270.2337 15.34417123 52823","mean_motion":15.34417123,"eccentricity":8.29e-5,"inclination_deg":53.159,"raan_deg":57.6008,"arg_perigee_deg":89.876,"mean_anomaly_deg":270.2337,"bstar":0.00046579,"rev_number":5282,"period_min":93.846710807332,"perigee_km":462.08524607896,"apogee_km":463.21944895278,"semimajor_km":6840.7893475159,"source":"CELESTRAK","updated_at":"2026-09-21T09:00:35.797215Z"}}